N7QNM-10 Weather Reports


Display with metric or nautical units.
time (UTC)temp
F
wind
direction
speed
MPH
gust
MPH
rain 1hr
in
rain 24hr
in
rain mn
in
humidity
%
barometer
mb
20180419113832 46 315 4.0 5.0 0.00 0.00 0.00 41 1019.9
20180419113327 46 315 3.0 6.0 0.00 0.00 0.00 40 1019.8
20180419112821 46 315 5.0 7.0 0.00 0.00 0.00 40 1019.9
20180419112316 47 315 2.0 5.0 0.00 0.00 0.00 40 1019.8
20180419111812 47 315 3.0 5.0 0.00 0.00 0.00 40 1019.8
20180419111306 47 315 4.0 6.0 0.00 0.00 0.00 40 1019.6
20180419110801 47 270 4.0 7.0 0.00 0.00 0.00 40 1019.6
20180419110256 47 270 4.0 7.0 0.00 0.00 0.00 40 1019.7
20180419105750 47 270 3.0 8.0 0.00 0.00 0.00 41 1019.6
20180419105245 47 270 3.0 4.0 0.00 0.00 0.00 42 1019.6
20180419104740 46 270 4.0 5.0 0.00 0.00 0.00 42 1019.7
20180419104235 46 270 3.0 5.0 0.00 0.00 0.00 43 1019.7
20180419103730 46 270 3.0 6.0 0.00 0.00 0.00 45 1019.4
20180419103224 44 270 3.0 4.0 0.00 0.00 0.00 46 1019.3
20180419102720 44 270 4.0 4.0 0.00 0.00 0.00 46 1019.3
20180419102214 43 270 3.0 4.0 0.00 0.00 0.00 46 1019.4
20180419101709 43 270 3.0 4.0 0.00 0.00 0.00 45 1019.4
20180419101204 43 270 1.0 2.0 0.00 0.00 0.00 43 1019.4
20180419100659 43 270 1.0 1.0 0.00 0.00 0.00 43 1019.2
20180419100153 44 270 0.0 3.0 0.00 0.00 0.00 43 1019.2
20180419095648 44 270 1.0 2.0 0.00 0.00 0.00 43 1019.2
20180419094635 45 270 1.0 3.0 0.00 0.00 0.00 42 1019.0
20180419094130 46 270 1.0 4.0 0.00 0.00 0.00 43 1019.0
20180419093625 45 270 2.0 7.0 0.00 0.00 0.00 43 1019.0
20180419093119 45 270 5.0 5.0 0.00 0.00 0.00 42 1018.8
20180419092614 46 270 2.0 4.0 0.00 0.00 0.00 41 1019.1
20180419092109 46 270 2.0 3.0 0.00 0.00 0.00 40 1019.2
20180419091604 47 270 2.0 4.0 0.00 0.00 0.00 40 1018.9
20180419091059 47 270 3.0 4.0 0.00 0.00 0.00 40 1018.9
20180419090553 47 315 2.0 2.0 0.00 0.00 0.00 40 1018.8
20180419090048 47 315 2.0 5.0 0.00 0.00 0.00 39 1018.9
20180419085543 47 270 1.0 4.0 0.00 0.00 0.00 39 1018.9
20180419085038 48 270 2.0 2.0 0.00 0.00 0.00 37 1018.9
20180419084533 49 270 1.0 5.0 0.00 0.00 0.00 37 1018.8
20180419084027 49 270 2.0 5.0 0.00 0.00 0.00 37 1018.8
20180419083522 49 315 3.0 5.0 0.00 0.00 0.00 37 1018.6
20180419083017 49 297 2.0 4.0 0.00 0.00 0.00 37 1018.7
20180419082512 49 252 1.0 5.0 0.00 0.00 0.00 36 1018.7
20180419082007 49 270 2.0 6.0 0.00 0.00 0.00 36 1018.5
20180419081501 49 270 1.0 4.0 0.00 0.00 0.00 36 1018.7
20180419080956 49 270 3.0 4.0 0.00 0.00 0.00 36 1018.7
20180419080451 49 270 1.0 4.0 0.00 0.00 0.00 37 1018.6
20180419075946 49 270 2.0 3.0 0.00 0.00 0.00 37 1018.8
20180419074936 48 0 0.0 1.0 0.00 0.00 0.00 37 1018.8
20180419074430 49 0 0.0 1.0 0.00 0.00 0.00 36 1018.8
20180419073925 49 0 0.0 2.0 0.00 0.00 0.00 35 1018.8
20180419073420 50 0 0.0 1.0 0.00 0.00 0.00 35 1018.8
20180419072915 50 180 4.0 6.0 0.00 0.00 0.00 35 1018.8
20180419072410 50 252 2.0 5.0 0.00 0.00 0.00 35 1018.7
20180419071904 50 270 3.0 5.0 0.00 0.00 0.00 35 1018.7
20180419071359 49 279 3.0 4.0 0.00 0.00 0.00 36 1018.7
20180419070854 49 270 1.0 3.0 0.00 0.00 0.00 36 1018.6
20180419070349 49 180 2.0 5.0 0.00 0.00 0.00 37 1018.5
20180419065844 50 180 2.0 3.0 0.00 0.00 0.00 38 1018.6
20180419065339 50 0 3.0 3.0 0.00 0.00 0.00 38 1018.6
20180419064833 50 342 2.0 3.0 0.00 0.00 0.00 36 1018.5
20180419064328 51 0 0.0 2.0 0.00 0.00 0.00 35 1018.7
20180419063823 51 0 0.0 3.0 0.00 0.00 0.00 34 1018.6
20180419063318 51 270 1.0 1.0 0.00 0.00 0.00 33 1018.7
20180419062813 51 270 0.0 1.0 0.00 0.00 0.00 33 1018.5
20180419062307 52 270 0.0 1.0 0.00 0.00 0.00 32 1018.5
20180419061802 52 270 3.0 3.0 0.00 0.00 0.00 32 1018.5
20180419061257 52 270 1.0 5.0 0.00 0.00 0.00 32 1018.6
20180419060752 52 270 3.0 4.0 0.00 0.00 0.00 32 1018.5
20180419060247 52 270 2.0 5.0 0.00 0.00 0.00 31 1018.3
20180419055742 53 270 2.0 3.0 0.00 0.00 0.00 30 1018.5
20180419055236 53 270 3.0 5.0 0.00 0.00 0.00 30 1018.2
20180419054731 53 270 2.0 5.0 0.00 0.00 0.00 30 1018.4
20180419054226 53 270 2.0 3.0 0.00 0.00 0.00 30 1018.5
20180419053721 53 270 4.0 8.0 0.00 0.00 0.00 30 1018.5
20180419053216 53 261 2.0 4.0 0.00 0.00 0.00 31 1018.5
20180419052710 53 261 4.0 8.0 0.00 0.00 0.00 30 1018.5
20180419052206 53 270 2.0 4.0 0.00 0.00 0.00 31 1018.7
20180419051700 53 270 1.0 3.0 0.00 0.00 0.00 31 1018.6
20180419051155 53 234 4.0 5.0 0.00 0.00 0.00 31 1018.5
20180419050650 53 270 1.0 3.0 0.00 0.00 0.00 31 1018.6
20180419050144 53 270 1.0 3.0 0.00 0.00 0.00 30 1018.6
20180419045639 53 270 2.0 4.0 0.00 0.00 0.00 30 1018.4
20180419045134 53 315 3.0 4.0 0.00 0.00 0.00 29 1018.4
20180419044629 54 270 2.0 3.0 0.00 0.00 0.00 29 1018.5
20180419044124 54 270 2.0 4.0 0.00 0.00 0.00 28 1018.4
20180419043619 55 270 3.0 6.0 0.00 0.00 0.00 28 1018.7
20180419043114 55 270 1.0 3.0 0.00 0.00 0.00 27 1018.5
20180419042608 55 270 2.0 3.0 0.00 0.00 0.00 26 1018.5
20180419042103 56 270 1.0 7.0 0.00 0.00 0.00 25 1018.4
20180419041558 56 270 4.0 8.0 0.00 0.00 0.00 24 1018.3
20180419041053 56 270 2.0 7.0 0.00 0.00 0.00 23 1018.3
20180419040548 57 270 8.0 9.0 0.00 0.00 0.00 23 1018.2
20180419040042 56 270 1.0 16.0 0.00 0.00 0.00 22 1018.2
20180419035537 56 270 5.0 10.0 0.00 0.00 0.00 24 1018.2
20180419035032 57 270 2.0 4.0 0.00 0.00 0.00 23 1018.2
20180419034527 56 270 2.0 18.0 0.00 0.00 0.00 22 1018.1
20180419034022 56 0 3.0 6.0 0.00 0.00 0.00 25 1018.3
20180419033516 55 0 3.0 3.0 0.00 0.00 0.00 27 1018.3
20180419033011 55 0 4.0 6.0 0.00 0.00 0.00 27 1018.4
20180419032506 55 0 5.0 7.0 0.00 0.00 0.00 27 1018.2
20180419032001 55 0 3.0 7.0 0.00 0.00 0.00 27 1018.0
20180419031456 55 0 6.0 7.0 0.00 0.00 0.00 27 1018.0
20180419030950 55 0 4.0 8.0 0.00 0.00 0.00 27 1018.0
20180419030445 55 0 4.0 9.0 0.00 0.00 0.00 27 1018.0
20180419025940 56 0 4.0 5.0 0.00 0.00 0.00 27 1017.9
20180419025437 56 0 3.0 4.0 0.00 0.00 0.00 28 1018.0
20180419024930 56 0 3.0 4.0 0.00 0.00 0.00 27 1018.0
20180419024425 56 0 3.0 3.0 0.00 0.00 0.00 28 1018.0
20180419023919 56 0 1.0 2.0 0.00 0.00 0.00 28 1018.0
20180419023414 56 0 2.0 3.0 0.00 0.00 0.00 28 1018.0
20180419022909 56 0 1.0 3.0 0.00 0.00 0.00 28 1017.9
20180419022404 56 0 1.0 4.0 0.00 0.00 0.00 27 1017.8
20180419021859 57 0 2.0 4.0 0.00 0.00 0.00 27 1017.9
20180419021354 57 0 0.0 4.0 0.00 0.00 0.00 27 1018.0
20180419020848 57 0 4.0 4.0 0.00 0.00 0.00 27 1018.0
20180419020343 57 0 1.0 4.0 0.00 0.00 0.00 27 1017.9
20180419015838 57 0 3.0 5.0 0.00 0.00 0.00 27 1017.9
20180419015333 57 0 6.0 8.0 0.00 0.00 0.00 26 1018.0
20180419014828 57 0 3.0 10.0 0.00 0.00 0.00 26 1017.9
20180419014331 57 337 7.0 8.0 0.00 0.00 0.00 25 1017.9
20180419013817 58 337 5.0 5.0 0.00 0.00 0.00 26 1018.0
20180419013312 58 337 1.0 8.0 0.00 0.00 0.00 27 1018.0
20180419012807 58 337 7.0 21.0 0.00 0.00 0.00 26 1017.9
20180419012302 58 333 4.0 10.0 0.00 0.00 0.00 27 1017.9
20180419011756 58 0 8.0 8.0 0.00 0.00 0.00 26 1018.0
20180419011251 58 0 8.0 8.0 0.00 0.00 0.00 27 1018.0
20180419010903 58 0 2.0 9.0 0.00 0.00 0.00 27 1018.0
20180419010754 58 0 2.0 9.0 0.00 0.00 0.00 27 1018.0
20180419010241 58 0 7.0 8.0 0.00 0.00 0.00 25 1017.9
20180419005735 58 0 6.0 10.0 0.00 0.00 0.00 27 1018.0
20180419005230 58 0 5.0 11.0 0.00 0.00 0.00 27 1018.1
20180419004725 58 0 4.0 9.0 0.00 0.00 0.00 27 1018.2
20180419004220 59 0 4.0 8.0 0.00 0.00 0.00 27 1018.3
20180419003715 59 0 3.0 8.0 0.00 0.00 0.00 27 1018.4
20180419003210 59 0 4.0 7.0 0.00 0.00 0.00 27 1018.3
20180419002704 59 0 5.0 9.0 0.00 0.00 0.00 27 1018.3
20180419002159 59 0 12.0 13.0 0.00 0.00 0.00 26 1018.1
20180419001654 59 0 5.0 8.0 0.00 0.00 0.00 28 1018.1
20180419001149 59 0 7.0 9.0 0.00 0.00 0.00 23 1018.0
20180419000644 59 0 6.0 9.0 0.00 0.00 0.00 25 1018.0
20180419000138 59 0 8.0 12.0 0.00 0.00 0.00 25 1018.0
20180418235633 60 0 4.0 6.0 0.00 0.00 0.00 28 1018.1
20180418235128 59 0 3.0 6.0 0.00 0.00 0.00 26 1018.0
20180418234623 59 0 6.0 9.0 0.00 0.00 0.00 23 1018.0
20180418234118 59 0 6.0 7.0 0.00 0.00 0.00 27 1018.0
20180418233612 59 0 4.0 10.0 0.00 0.00 0.00 25 1018.0
20180418233107 59 0 5.0 10.0 0.00 0.00 0.00 25 1018.2
20180418232603 59 0 4.0 10.0 0.00 0.00 0.00 25 1018.0
20180418232057 59 0 7.0 10.0 0.00 0.00 0.00 23 1018.2
20180418231552 60 337 2.0 5.0 0.00 0.00 0.00 24 1018.3
20180418231047 59 337 6.0 9.0 0.00 0.00 0.00 26 1018.2
20180418230541 59 315 5.0 7.0 0.00 0.00 0.00 22 1018.3
20180418230036 59 315 7.0 10.0 0.00 0.00 0.00 22 1018.5
20180418225531 59 315 6.0 7.0 0.00 0.00 0.00 28 1018.4
20180418225026 59 315 8.0 8.0 0.00 0.00 0.00 26 1018.5
20180418224521 59 315 4.0 5.0 0.00 0.00 0.00 23 1018.5
20180418224016 59 315 3.0 5.0 0.00 0.00 0.00 26 1018.8
20180418223511 59 315 5.0 7.0 0.00 0.00 0.00 25 1018.7
20180418223005 59 315 6.0 8.0 0.00 0.00 0.00 26 1018.8
20180418222500 59 315 5.0 9.0 0.00 0.00 0.00 27 1018.9
20180418221955 59 315 9.0 15.0 0.00 0.00 0.00 25 1018.9
20180418221450 59 315 7.0 8.0 0.00 0.00 0.00 26 1018.9
20180418220944 59 315 4.0 9.0 0.00 0.00 0.00 28 1019.1
20180418220439 59 315 4.0 10.0 0.00 0.00 0.00 29 1019.1
20180418215934 59 315 8.0 11.0 0.00 0.00 0.00 27 1019.0
20180418215429 58 315 8.0 9.0 0.00 0.00 0.00 25 1019.3
20180418214924 58 315 7.0 12.0 0.00 0.00 0.00 27 1019.3
20180418214419 58 315 7.0 14.0 0.00 0.00 0.00 29 1019.3
20180418213913 58 315 4.0 10.0 0.00 0.00 0.00 27 1019.4
20180418213408 58 315 7.0 10.0 0.00 0.00 0.00 26 1019.3
20180418212903 58 315 8.0 9.0 0.00 0.00 0.00 27 1019.6
20180418212358 58 315 4.0 8.0 0.00 0.00 0.00 27 1019.7
20180418211853 58 315 7.0 10.0 0.00 0.00 0.00 29 1019.7
20180418211347 58 315 7.0 7.0 0.00 0.00 0.00 28 1019.6
20180418210842 58 315 10.0 12.0 0.00 0.00 0.00 25 1019.6
20180418210337 58 315 7.0 9.0 0.00 0.00 0.00 30 1019.7
20180418205832 57 315 4.0 12.0 0.00 0.00 0.00 30 1019.8
20180418205327 57 315 5.0 10.0 0.00 0.00 0.00 30 1019.8
20180418204821 57 315 3.0 10.0 0.00 0.00 0.00 38 1019.8
20180418204316 57 315 6.0 6.0 0.00 0.00 0.00 39 1019.9
20180418203811 57 315 9.0 9.0 0.00 0.00 0.00 38 1020.0
20180418203306 57 315 7.0 9.0 0.00 0.00 0.00 40 1020.1
20180418202801 56 315 6.0 7.0 0.00 0.00 0.00 38 1020.1
20180418202256 56 315 2.0 7.0 0.00 0.00 0.00 39 1020.3
20180418201750 56 315 5.0 7.0 0.00 0.00 0.00 38 1020.4
20180418201245 56 315 5.0 7.0 0.00 0.00 0.00 41 1020.4
20180418200740 56 315 3.0 5.0 0.00 0.00 0.00 42 1020.5
20180418195725 55 315 6.0 8.0 0.00 0.00 0.00 43 1020.4
20180418195219 55 315 2.0 4.0 0.00 0.00 0.00 42 1020.5
20180418194714 55 315 3.0 6.0 0.00 0.00 0.00 45 1020.5
20180418194209 55 315 6.0 7.0 0.00 0.00 0.00 45 1020.7
20180418193704 55 315 4.0 6.0 0.00 0.00 0.00 43 1020.8
20180418193159 54 315 2.0 5.0 0.00 0.00 0.00 45 1020.5
20180418192654 54 315 1.0 6.0 0.00 0.00 0.00 44 1020.7
20180418192148 54 315 1.0 2.0 0.00 0.00 0.00 43 1020.8
20180418191643 53 315 3.0 4.0 0.00 0.00 0.00 43 1021.0
20180418191138 54 315 3.0 6.0 0.00 0.00 0.00 41 1021.2
20180418190633 54 315 3.0 4.0 0.00 0.00 0.00 45 1021.1
20180418190128 53 315 2.0 6.0 0.00 0.00 0.00 47 1021.1
20180418185623 53 315 0.0 6.0 0.00 0.00 0.00 47 1021.5
20180418185117 53 315 3.0 3.0 0.00 0.00 0.00 46 1021.5
20180418184612 52 279 4.0 5.0 0.00 0.00 0.00 47 1021.5
20180418184107 52 315 5.0 5.0 0.00 0.00 0.00 47 1021.6
20180418183602 52 315 1.0 3.0 0.00 0.00 0.00 47 1021.7
20180418183057 52 315 3.0 4.0 0.00 0.00 0.00 49 1021.6
20180418182552 51 315 2.0 3.0 0.00 0.00 0.00 47 1021.6
20180418182047 51 292 3.0 3.0 0.00 0.00 0.00 47 1021.6
20180418181541 51 315 0.0 4.0 0.00 0.00 0.00 48 1021.5
20180418181036 51 315 3.0 4.0 0.00 0.00 0.00 48 1021.5
20180418180531 50 315 2.0 4.0 0.00 0.00 0.00 49 1021.7
20180418180025 50 315 4.0 7.0 0.00 0.00 0.00 50 1021.6
20180418175520 50 45 0.0 3.0 0.00 0.00 0.00 49 1021.7
20180418175015 49 45 2.0 3.0 0.00 0.00 0.00 49 1020.5
20180418174510 49 67 0.0 4.0 0.00 0.00 0.00 49 1021.3
20180418174005 49 67 2.0 4.0 0.00 0.00 0.00 51 1022.0
20180418173500 48 333 1.0 4.0 0.00 0.00 0.00 51 1020.5
20180418172955 48 351 1.0 5.0 0.00 0.00 0.00 52 1020.5
20180418172449 48 342 2.0 4.0 0.00 0.00 0.00 53 1020.6
20180418171944 48 333 3.0 5.0 0.00 0.00 0.00 53 1020.8
20180418171439 48 0 3.0 4.0 0.00 0.00 0.00 53 1020.8
20180418170934 48 351 3.0 5.0 0.00 0.00 0.00 54 1020.7
20180418170429 47 0 3.0 6.0 0.00 0.00 0.00 54 1020.8
20180418165923 47 355 2.0 5.0 0.00 0.00 0.00 55 1020.8
20180418165418 47 328 3.0 4.0 0.00 0.00 0.00 55 1021.0
20180418164913 47 328 2.0 5.0 0.00 0.00 0.00 56 1020.6
20180418164408 47 337 2.0 4.0 0.00 0.00 0.00 56 1020.9
20180418163903 47 328 3.0 5.0 0.00 0.00 0.00 56 1020.8
20180418163357 46 337 3.0 5.0 0.00 0.00 0.00 56 1020.8
20180418162852 46 351 2.0 4.0 0.00 0.00 0.00 55 1020.8
20180418162347 46 351 4.0 5.0 0.00 0.00 0.00 57 1020.6
20180418161842 46 346 3.0 5.0 0.00 0.00 0.00 58 1020.9
20180418161337 46 351 3.0 5.0 0.00 0.00 0.00 59 1020.9
20180418160832 46 351 1.0 4.0 0.00 0.00 0.00 61 1020.8
20180418160326 45 342 3.0 5.0 0.00 0.00 0.00 62 1020.8
20180418155821 45 328 2.0 4.0 0.00 0.00 0.00 63 1021.0
20180418155316 45 0 5.0 5.0 0.00 0.00 0.00 65 1021.0
20180418154811 44 355 2.0 3.0 0.00 0.00 0.00 65 1021.1
20180418154305 44 346 2.0 5.0 0.00 0.00 0.00 65 1021.4
20180418153800 43 0 3.0 5.0 0.00 0.00 0.00 67 1021.1
20180418153255 43 355 3.0 4.0 0.00 0.00 0.00 67 1021.2
20180418152750 43 328 2.0 5.0 0.00 0.00 0.00 67 1021.2
20180418152245 42 328 2.0 3.0 0.00 0.00 0.00 68 1021.1
20180418151739 42 346 2.0 5.0 0.00 0.00 0.00 68 1021.0
20180418151234 42 337 1.0 3.0 0.00 0.00 0.00 68 1020.9
20180418150729 41 315 3.0 3.0 0.00 0.00 0.00 69 1020.7
20180418150224 41 297 2.0 3.0 0.00 0.00 0.00 69 1020.9
20180418145719 41 315 3.0 3.0 0.00 0.00 0.00 69 1020.8
20180418145214 41 315 2.0 2.0 0.00 0.00 0.00 70 1020.8
20180418144708 40 315 1.0 3.0 0.00 0.00 0.00 70 1021.1
20180418144203 40 292 1.0 2.0 0.00 0.00 0.00 70 1021.1
20180418143658 40 297 1.0 2.0 0.00 0.00 0.00 70 1021.1
20180418143153 39 310 0.0 1.0 0.00 0.00 0.00 70 1021.1
20180418142648 39 306 3.0 3.0 0.00 0.00 0.00 70 1020.8
20180418142143 39 306 1.0 2.0 0.00 0.00 0.00 70 1021.0
20180418141637 39 301 0.0 1.0 0.00 0.00 0.00 70 1020.8
20180418141132 39 306 1.0 1.0 0.00 0.00 0.00 70 1021.1
20180418140627 38 310 0.0 0.0 0.00 0.00 0.00 70 1020.8
20180418140112 38 306 0.0 2.0 0.00 0.00 0.00 70 1020.7
20180418135607 38 315 1.0 2.0 0.00 0.00 0.00 70 1020.8
20180418135101 37 310 0.0 0.0 0.00 0.00 0.00 70 1020.5
20180418134556 37 306 1.0 1.0 0.00 0.00 0.00 70 1020.3
20180418134051 37 301 1.0 1.0 0.00 0.00 0.00 70 1020.4
20180418133546 37 297 0.0 0.0 0.00 0.00 0.00 69 1020.5
20180418133041 37 315 1.0 2.0 0.00 0.00 0.00 69 1020.6
20180418132535 37 315 1.0 2.0 0.00 0.00 0.00 68 1020.6
20180418132030 37 301 1.0 2.0 0.00 0.00 0.00 68 1020.7
20180418131525 37 306 1.0 1.0 0.00 0.00 0.00 67 1020.5
20180418131020 37 315 0.0 1.0 0.00 0.00 0.00 67 1020.7
20180418130515 37 315 41.0 41.0 0.00 0.00 0.00 67 1020.6
20180418130000 37 301 41.0 41.0 0.00 0.00 0.00 67 1020.6
20180418125445 38 301 0.0 0.0 0.00 0.00 0.00 67 1020.6
20180418124929 38 301 0.0 0.0 0.00 0.00 0.00 67 1020.6
20180418124424 38 315 0.0 0.0 0.00 0.00 0.00 67 1020.5
20180418123909 38 310 0.0 1.0 0.00 0.00 0.00 67 1020.8
20180418123404 38 297 1.0 1.0 0.00 0.00 0.00 67 1020.7
20180418122858 37 315 0.0 1.0 0.00 0.00 0.00 67 1020.6
20180418122353 37 310 0.0 1.0 0.00 0.00 0.00 67 1020.7
20180418121848 37 315 0.0 1.0 0.00 0.00 0.00 67 1020.6
20180418121343 37 301 0.0 1.0 0.00 0.00 0.00 66 1020.7
20180418120838 37 306 0.0 1.0 0.00 0.00 0.00 67 1021.0
20180418120332 37 310 0.0 2.0 0.00 0.00 0.00 67 1020.6
20180418115827 37 315 1.0 1.0 0.00 0.00 0.00 67 1020.7
20180418115322 36 315 0.0 1.0 0.00 0.00 0.00 66 1020.9
20180418114817 36 315 1.0 1.0 0.00 0.00 0.00 65 1020.8
20180418114312 36 315 0.0 0.0 0.00 0.00 0.00 66 1020.7